Location: Pl�tzky
(52.0521°N, 11.8020°E)
Time: 07:47:57
(UTC+00:00)

Ariane Rocket - Pass Details

Date: 22 November 2019
Orbit: 759 x 771 km, 98.7° (Epoch: 14 December)

Event Time Altitude Azimuth Distance (km) Brightness Sun altitude
Exits shadow 17:55:49 69° 72° (ENE) 822 2.8 -24.4°
Maximum altitude 17:55:50 69° 71° (ENE) 822 2.8 -24.5°
Drops below altitude 10° 18:00:54 10° 348° (NNW) 2,314 5.6 -25.2°
Sets 18:03:13 0° 347° (NNW) 3,243 6.4 -25.6°
